Showing default

INTELSAT 2-F3, 2717

Orbit data source: Space-Track

INTELSAT 2-F3, 2717 is a payload satellite owned by INTELSAT (US) in GEO that was launched on Thu, 23 Mar 1967 UTC via a THOR DELTA E1 launch vehicle from the Air Force Eastern Test Range (AFETR). Payload-class satellites include a variety of spacecraft equipped with specific instruments for various scientific and technological missions. These include communications satellites like Starlink; space stations such as the ISS; scientific satellites like the Hubble; Earth observation satellites from companies like Planet Labs, Umbra, and HawkEye 360; GPS; miniature CubeSats for education and research; and military/defense satellites.

Not visible in the next 10 days
Identifier
2717, 1967-026A
Orbit
GEO
Country
Flag of UnknownUnknown / ITSO
Related business
Manufacturer
Hughes
Mission
Non-operational spacecraft
Bus & Motor
HS-303, SVM-1
Mass
163 kg wet, ~65 kg dry
Launch date (UTC)
1967-03-23 (59 years ago)
Launch vehicle
THOR DELTA E1
Launch site
Air Force Eastern Test Range (AFETR)
Object type
Payload
Rocket body
Debris
Shape & HBR
Unknown
Radar Cross Section
Large (>1 m²)

Expand to show TLE details & history
Last TLE update: 10 hours ago

TLE from 10 hours ago
0 INTELSAT 2-F3
1  2717U 67026A   26012.80554905  .00000026  00000-0  00000+0 0  9992
2  2717   3.6962  68.9569 0020664 219.7757 115.2020  1.00298001122337
Epoch: 2026-01-12T19:19Z
TLE epoch observation values (Epoch: 2026-01-12T19:19:59.437Z)
Latitude
-1.54896°
Longitude
1.91346°
Altitude
35,816.414 km
Speed
3.072 km/s
True Right ascension
02h 56m 49s
True Declination
-1° 32' 51"
Sunlit
Object was in daylight at epoch
Visualization orbit readout
Latitude
Unknown
Longitude
Unknown
Altitude
Unknown
Speed
Unknown
Apparent Right ascension
Unknown
Apparent Declination
Unknown
Sunlit
N/A
Visualization observer readout
Local Sidereal Time
05:35:26
Azimuth
Unknown
Elevation
Unknown
Doppler factor
Unknown
Orbital elements
Apogee altitude
35,867.428 km
Perigee altitude
35,693.195 km
Semi-major axis
42,158.448 km
Eccentricity
0.00207
Inclination
3.6962°
RAAN
68.9569°
Arg. of periapsis
219.7757°
True anomaly
115.41602°
Mean anomaly
115.202°
Eccentric anomaly
115.30903°
Mean motion
0.25074 °/min
Orbital period
1,435.77 mins
BSTAR
0
Loading maneuver chart data...
Computing Atmospheric mass density...
Loading historical data...
Loading historical data...
Loading historical data...
Loading historical data...
Loading historical data...
Loading historical data...
Loading historical data...
Other satellites on launch #26 in the year 1967 (1967-03-23 UTC)

Documentation

Showing up to 5 results
|